Regional Weather Roundup
Issued by NWS

Home | Current Version | Previous Version | Text Only | Print | Product List | Glossary Off
Versions: 1 2 3 4 5 6 7 8 9 10 11 12 13 14 15 16 17 18 19 20 21 22 23 24 25 26 27

000
ASUS43 KDMX 201507
RWRIA

WEATHER ROUNDUP FOR IOWA
NATIONAL WEATHER SERVICE DES MOINES IA
1000 AM CDT SUN APR 20 2014

NOTE: "FAIR" INDICATES FEW OR NO CLOUDS BELOW 12,000 FEET WITH NO
SIGNIFICANT WEATHER AND/OR OBSTRUCTIONS TO VISIBILITY.

* - THESE STATIONS ARE NOT NWS STATIONS...THUS NOT UNDER NWS
QUALITY CONTROL.  THEY ALSO DO NOT REPORT WEATHER SUCH
AS PRECIPITATION OR FOG.

IAZ001>003-012>014-020>022-031>034-043>046-201600-
   NORTHWEST IOWA

CITY           SKY/WX    TMP DP  RH WIND       PRES   REMARKS
CARROLL *      SUNNY     70  50  49 SW17      30.00S
CHEROKEE *     PTSUNNY   59  55  88 S5        30.00R
DENISON *      SUNNY     68  50  52 SW12      29.98S
LE MARS *      SUNNY     63  54  72 CALM      29.99R
ORANGE CITY *  SUNNY     64  46  52 SE6       29.99S
SHELDON *      SUNNY     63  46  55 E8        29.99R
SIOUX CITY     PTSUNNY   63  52  67 VRB3      29.98S
SPENCER        PTSUNNY   63  49  60 SE7       30.00S
STORM LAKE *   SUNNY     59  54  82 S8        30.02R
$$

IAZ055>058-069>071-079>083-090>094-201600-
   SOUTHWEST IOWA

CITY           SKY/WX    TMP DP  RH WIND       PRES   REMARKS
ATLANTIC *     SUNNY     70  50  49 SW17      30.00S
AUDUBON *      SUNNY     72  46  40 SW12G18   30.02S
CLARINDA *     SUNNY     73  52  46 SW20G25   30.04S
COUNCIL BLFS * SUNNY     68  52  56 SW14G21   29.99S
CRESTON *      SUNNY     72  52  49 SW21      30.04S
HARLAN  *      SUNNY     68  50  52 S16G23    30.03S
LAMONI         SUNNY     69  49  48 SW16      30.07S
RED OAK *      SUNNY     72  52  49 SW16G24   30.02R
SHENANDOAH *   SUNNY     72  52  49 SW17G26   30.02S
$$

IAZ047>049-059>061-072>074-084-201600-
   CENTRAL IOWA

CITY           SKY/WX    TMP DP  RH WIND       PRES   REMARKS
AMES           MOSUNNY   67  51  56 S12       30.04S
ANKENY *       CLOUDY    70  50  49 SW12      30.04F
CHARITON *     SUNNY     70  50  49 S16       30.07S
DES MOINES     MOSUNNY   72  49  44 SW12G20   30.05S
GRINNELL*      PTSUNNY   68  46  45 S15       30.07F
KNOXVILLE *    SUNNY     70  48  46 S14       30.06F
MARSHALLTOWN   CLOUDY    61  48  62 S10       30.06S
NEWTON *       PTSUNNY   68  46  45 SW12      30.07S
PELLA *        SUNNY     72  48  43 S12       30.08S
PERRY *          N/A     72  46  40 SW13      30.02F
$$

IAZ004>006-015-016-023>025-035-036-201600-
   NORTH CENTRAL IOWA

CITY           SKY/WX    TMP DP  RH WIND       PRES   REMARKS
ALGONA *       PTSUNNY   55  54  94 E7G14     29.99F
CLARION *      LGT RAIN  54  52  94 SE8       30.04F
ESTHERVILLE    CLOUDY    55  51  86 NE8       29.99F
FORT DODGE *   CLOUDY    55  50  82 SE5       30.03S THUNDER
MASON CITY     LGT RAIN  53  52  96 SE6       30.07S FOG
FOREST CITY *  CLOUDY    54  54 100 S7        30.04F
IOWA FALLS *   PTSUNNY   59  48  67 S7        30.07R
$$

IAZ007>011-017>019-026>030-037>042-050>054-066-201600-
   NORTHEAST IOWA

CITY           SKY/WX    TMP DP  RH WIND       PRES   REMARKS
CEDAR RAPIDS   MOSUNNY   66  44  45 S14       30.09F
CHARLES CITY * LGT RAIN  52  50  93 SE7       30.09F
CLINTON *      MOSUNNY   66  41  39 SW14      30.17S
DECORAH *      LGT RAIN  54  50  87 S6        30.10R
DUBUQUE        MOSUNNY   63  42  46 S16       30.11F
MONTICELLO *   SUNNY     68  45  42 S10       30.11S
OELWEIN *      MOSUNNY  N/A N/A N/A S8        30.10S
WATERLOO       CLOUDY    53  47  79 MISG      30.07S
$$

IAZ064-065-067-068-078-201600-
   EAST CENTRAL IOWA

CITY           SKY/WX    TMP DP  RH WIND       PRES   REMARKS
DAVENPORT      MOSUNNY   69  42  37 S14       30.13F
IOWA CITY      SUNNY     67  47  48 S10       30.12F
MT. PLEASANT * SUNNY     72  41  33 S10       30.13S
MUSCATINE *    SUNNY     72  45  37 S13       30.12S
QUAD CITIES    MOSUNNY   70  42  36 SW10      30.12F
$$

IAZ062-063-075>077-085>089-095>099-201600-
   SOUTHEAST IOWA

CITY           SKY/WX    TMP DP  RH WIND       PRES   REMARKS
BURLINGTON     MOSUNNY   67  45  45 SW13      30.13F
FAIRFIELD *    SUNNY     70  45  40 S12       30.11S
FORT MADISON * SUNNY     66  45  45 S12       30.14S
KEOKUK *       SUNNY     66  45  45 S12       30.13S
OSKALOOSA *      N/A     70  45  40 S12       30.10R
CENTERVILLE *  SUNNY     70  48  46 S14       30.11S
OTTUMWA        SUNNY     69  45  41 S14       30.09S
WASHINGTON *   SUNNY     72  45  37 S12       30.11S
$$

ABBREVIATIONS USED IN REMARKS
   TC - TEMPERATURES IN CELSIUS
  WCI - WIND CHILL INDEX
   HX - HEAT INDEX
  VSB - VISIBILITY
$$




USA.gov is the U.S. government's official web portal to all federal, state and local government web resources and services.